Location: Dehesa de la Cepeda
(40.6574°N, 4.3013°W)
Time: 12:20:46
(UTC+00:00)

Courier 1B Rocket - All Passes

Search period start: 02 August 2021 00:00
Search period end: 12 August 2021 00:00
Orbit: 920 x 1202 km, 28.2° (Epoch: 01 August)

Date Brightness Start Highest point End Pass type
(mag) Time Alt. Az. Time Alt. Az. Time Alt. Az.
02 Aug - 00:15:59 10° S 00:19:22 14° SSE 00:22:40 10° SE night (unlit)
02 Aug - 02:06:38 10° SW 02:11:57 25° S 02:17:01 10° ESE visible
02 Aug - 03:59:18 10° WSW 04:04:33 26° S 04:09:38 10° SE visible
02 Aug - 05:53:17 10° SW 05:57:01 16° SSW 06:00:42 10° SSE daylight
02 Aug - 23:17:25 10° SSE 23:18:34 10° SSE 23:19:43 10° SE night (unlit)
03 Aug - 01:05:59 10° SW 01:11:07 22° SSE 01:16:02 10° ESE visible
03 Aug - 02:58:15 10° WSW 03:03:46 27° S 03:09:01 10° SE visible
03 Aug - 04:51:45 10° WSW 04:56:18 20° SSW 05:00:45 10° SSE daylight
04 Aug - 00:05:32 10° SSW 00:10:17 19° SSE 00:14:50 10° ESE night (unlit)
04 Aug - 01:57:17 10° SW 02:02:57 27° S 02:08:19 10° ESE visible
04 Aug - 03:50:26 10° WSW 03:55:34 24° S 04:00:31 10° SE visible
04 Aug - 05:45:35 10° SW 05:47:55 12° SSW 05:50:15 10° S daylight
04 Aug - 23:05:27 10° SSW 23:09:26 15° SSE 23:13:19 10° SE night (unlit)
05 Aug - 00:56:24 10° SW 01:02:06 26° S 01:07:29 10° ESE visible
05 Aug - 02:49:13 10° WSW 02:54:47 27° S 03:00:03 10° SE visible
05 Aug - 04:43:21 10° WSW 04:47:15 17° SSW 04:51:03 10° SSE visible
05 Aug - 22:06:13 10° S 22:08:35 12° SSE 22:10:55 10° SE night (unlit)
05 Aug - 23:55:38 10° SW 00:01:13 24° SSE 00:06:31 10° ESE night (unlit)
06 Aug - 01:48:05 10° WSW 01:53:56 29° S 01:59:29 10° SE visible
06 Aug - 03:41:42 10° WSW 03:46:32 21° SSW 03:51:10 10° SSE visible
06 Aug - 22:55:06 10° SSW 23:00:18 20° SSE 23:05:18 10° ESE night (unlit)
07 Aug - 00:47:01 10° SW 00:53:03 29° S 00:58:45 10° ESE night (unlit)
07 Aug - 02:40:17 10° WSW 02:45:45 25° SSW 02:50:57 10° SE visible
07 Aug - 04:35:32 10° SW 04:38:09 12° SSW 04:40:42 10° S visible
07 Aug - 21:54:55 10° SSW 21:59:24 17° SSE 22:03:46 10° ESE visible
07 Aug - 23:46:03 10° SW 23:52:08 28° S 23:57:54 10° ESE night (unlit)
08 Aug - 01:38:59 10° WSW 01:44:55 28° S 01:50:30 10° SE visible
08 Aug - 03:33:14 10° WSW 03:37:26 17° SSW 03:41:30 10° SSE visible
08 Aug - 20:55:28 10° S 20:58:31 13° SSE 21:01:31 10° SE visible
08 Aug - 22:45:15 10° SW 22:51:11 25° SSE 22:56:52 10° ESE visible
09 Aug - 00:37:47 10° WSW 00:44:01 30° S 00:49:54 10° ESE night (unlit)
09 Aug - 02:31:30 10° WSW 02:36:41 22° SSW 02:41:36 10° SSE visible
09 Aug - 21:44:41 10° SSW 21:50:14 22° SSE 21:55:37 10° ESE visible
09 Aug - 23:36:41 10° SW 23:43:04 30° S 23:49:08 10° ESE night (unlit)
10 Aug - 01:30:02 10° WSW 01:35:51 26° SSW 01:41:22 10° SE night (unlit)
10 Aug - 03:25:16 10° SW 03:28:18 13° SSW 03:31:15 10° S visible
10 Aug - 20:44:29 10° SSW 20:49:18 18° SSE 20:54:02 10° ESE visible
10 Aug - 22:35:42 10° SW 22:42:05 29° S 22:48:12 10° ESE visible
11 Aug - 00:28:40 10° WSW 00:34:57 29° S 00:40:53 10° SE night (unlit)
11 Aug - 02:22:58 10° WSW 02:27:33 18° SSW 02:31:57 10° SSE night (unlit)
11 Aug - 19:44:58 10° S 19:48:23 13° SSE 19:51:47 10° SE visible
11 Aug - 21:34:53 10° SW 21:41:05 26° SSE 21:47:05 10° ESE visible
11 Aug - 23:27:27 10° WSW 23:33:59 31° S 23:40:12 10° ESE visible
